[[{"header":{"parameterUnit":"m.s-1","parameterCategory":1,"la1":30.2991,"la2":30.254,"lo1":-89.0895,"lo2":-89.0444,"dy":0.0017,"dx":0.0017,"nx":28,"ny":28,"refTime":"2024-11-26T09:00:00:Z","depth":0,"parameterNumber":2,"parameterNumberName":"U-component_of_WINDS"},"data":[0,0,0,0,0,0,0,0,0,0,0,0,0,0,0,0,0,0,0,0,0,0,0,0,0,0,0,0,0,0,0,0,0,0,0,0,0,0,0,0,0,0,0,0,0,0,0,0,0,0,0,0,0,0,0,0,0,0,2.2542,2.2542,0,2.262,2.2621,2.2622,2.2617,2.2616,2.2615,2.2614,2.2691,2.2694,2.2697,0,0,0,0,0,0,0,0,0,0,0,0,0,2.2382,2.2385,2.2541,2.2543,2.2544,2.262,2.2621,2.2622,2.2617,2.2616,2.2615,2.2613,2.269,2.2694,2.2698,0,0,0,0,0,0,0,0,0,0,0,0,0,2.2455,2.2386,2.2541,2.255,2.2552,2.262,2.2621,2.2623,2.2618,2.2616,2.2614,2.2613,2.2689,2.2694,2.2698,2.2761,0,0,2.2713,2.2715,0,0,0,0,0,0,0,0,2.2451,2.2461,2.2548,2.255,2.2552,2.2607,2.2594,2.2669,2.2618,2.2593,2.2614,2.2612,2.2664,2.2671,2.2689,2.2765,2.2768,2.2713,2.2716,2.2718,2.2719,0,0,0,0,0,0,0,2.2446,2.2458,2.2573,2.2549,2.2552,2.2549,2.2557,2.2608,2.2637,2.2595,2.2595,2.2604,2.2665,2.2685,2.2691,2.277,2.2713,2.2717,2.272,2.2722,2.2899,2.2901,0,0,0,0,0,0,2.244,2.2454,2.257,2.2575,2.2496,2.2553,2.2563,2.2591,2.2637,2.2642,2.2605,2.2604,2.2678,2.2686,2.2694,2.277,2.2718,2.2722,2.2725,2.2897,2.2899,2.2901,0,0,0,0,0,0,2.2436,2.245,2.2567,2.2514,2.2529,2.2558,2.259,2.2594,2.2613,2.2645,2.2649,2.2621,2.2677,2.2687,2.2744,2.2772,2.2724,2.2729,2.2895,2.2898,2.29,2.2922,0,0,0,0,0,0,2.2432,2.2449,2.2474,2.2515,2.2532,2.2617,2.2592,2.2596,2.2622,2.262,2.266,2.2665,2.2676,2.2737,2.2749,2.2778,2.2732,2.2892,2.2896,2.2899,2.2919,2.2925,2.2931,0,0,0,0,0,2.2426,2.2477,2.2476,2.249,2.2564,2.2619,2.2629,2.2641,2.2624,2.2649,2.2669,2.2664,2.2768,2.2743,2.2756,2.2787,2.2891,2.2895,2.2899,2.2916,2.2924,2.2931,0,0,0,0,0,0,2.2438,2.2483,2.2482,2.2548,2.258,2.2618,2.265,2.2649,2.2686,2.2683,2.2696,2.2705,2.2762,2.278,2.2752,2.285,2.2827,2.2834,2.2835,2.2843,2.2849,2.2843,2.2736,0,0,0,0,0,2.2449,2.2491,2.2527,2.2581,2.2598,2.2621,2.2645,2.2652,2.2686,2.2699,2.2723,2.2754,2.2794,2.282,2.2858,2.2922,2.2929,2.2949,2.2955,2.296,2.2965,2.2999,2.3007,2.2915,2.2915,2.2915,0,0,2.247,2.25,2.2525,2.2585,2.261,2.2652,2.2633,2.2678,2.2708,2.2705,2.2761,2.2779,2.2815,2.2876,2.2903,2.2893,2.2992,2.2965,2.2969,2.2972,2.3004,2.3012,2.302,2.2918,2.2917,2.2917,0,0,2.2531,2.2559,2.2606,2.2632,2.2672,2.2687,2.2698,2.2737,2.275,2.2806,2.2804,2.2839,2.2908,2.2933,2.2955,2.3024,2.302,2.3036,2.3066,2.3098,2.3105,2.3112,2.3135,2.3143,2.3041,2.3041,2.3041,0,2.2553,2.2617,2.2631,2.2676,2.2701,2.2701,2.2749,2.2773,2.2822,2.2839,2.2827,2.2911,2.2936,2.3001,2.3018,2.3036,2.3048,2.3031,2.3104,2.311,2.3116,2.3138,2.3147,2.3043,2.3043,2.3043,2.3042,0,2.264,2.2685,2.2718,2.2767,2.2796,2.2842,2.2861,2.2889,2.2893,2.2909,2.2964,2.2994,2.3037,2.3053,2.3058,2.3119,2.3111,2.3101,2.3078,2.3126,2.3147,2.3156,2.3045,2.3045,2.3044,2.3044,0,0,2.2711,2.2766,2.2778,2.2799,2.2842,2.2876,2.2921,2.2965,2.2987,2.3021,2.3058,2.3115,2.3106,2.3131,2.3138,2.3166,2.3217,2.3153,2.3154,2.3162,2.3284,2.329,2.33,2.3215,2.3217,2.3218,2.328,0,2.2775,2.2856,2.287,2.2941,2.2981,2.2981,2.302,2.305,2.3066,2.3101,2.3118,2.3157,2.3143,2.3158,2.3186,2.3205,2.3241,2.3201,2.3248,2.3249,2.3237,2.3311,2.3318,2.3375,2.3289,2.329,2.3291,0,2.286,2.2897,2.2972,2.3009,2.3026,2.3061,2.3101,2.3135,2.3168,2.3177,2.3204,2.3208,2.3253,2.3229,2.329,2.3262,2.3282,2.3294,2.3296,2.33,2.3272,2.3315,2.3394,2.3402,2.3304,2.3303,2.3302,0,2.2902,2.297,2.3023,2.3042,2.3086,2.3111,2.313,2.3161,2.3186,2.3221,2.3236,2.3275,2.3296,2.3325,2.3338,2.332,2.3398,2.3375,2.3405,2.3405,2.3421,2.342,2.3503,2.3436,2.3436,2.3436,2.3436,0,2.2971,2.3016,2.3042,2.3075,2.3126,2.314,2.3189,2.3207,2.3235,2.327,2.3273,2.3305,2.3321,2.3355,2.3366,2.3414,2.3424,2.3431,2.3433,2.343,2.3429,2.3442,2.3438,2.3438,2.3438,2.3437,2.3437,0,2.3025,2.3045,2.3103,2.314,2.3151,2.3186,2.3217,2.3248,2.3264,2.3308,2.3319,2.3343,2.3383,2.3399,2.3449,2.3455,2.351,2.351,2.3499,2.3499,2.3528,2.3524,2.3622,2.3634,2.3561,2.3561,2.3562,0,2.3067,2.3103,2.3144,2.3168,2.3188,2.3227,2.3252,2.3267,2.3293,2.3333,2.3358,2.3399,2.3432,2.3496,2.3517,2.3554,2.3554,2.3585,2.3559,2.3555,2.3552,2.3549,2.3552,2.359,2.359,2.3591,2.3591,0,2.3139,2.3147,2.3184,2.3225,2.3255,2.3287,2.3318,2.3337,2.3357,2.3385,2.3427,2.3453,2.3503,2.3543,2.3581,2.3599,2.3598,2.36,2.3608,2.3605,2.3597,2.36,2.3511,2.3597,2.3596,2.3596,2.3596,2.3595,2.3188,2.3219,2.3252,2.3293,2.3318,2.3347,2.3377,2.3397,2.3433,2.3475,2.3482,2.3526,2.3556,2.3608,2.3627,2.3661,2.3653,2.3665,2.3668,2.3671,2.3672,2.3593,2.3668,2.3668,2.3668,2.3668,2.3668,0,2.3259,2.328,2.3318,2.3362,2.3393,2.3391,2.3425,2.3451,2.349,2.3519,2.3552,2.3599,2.3637,2.3661,2.3699,2.3721,2.3721,2.373,2.3728,2.3732,2.3678,2.3666,2.3729,2.3729,2.3729,2.3729,2.3729,2.3729,2.3299,2.335,2.3362,2.3425,2.3446,2.349,2.351,2.3536,2.3559,2.3612,2.3644,2.3659,2.3686,2.3725,2.376,2.3765,2.3778,2.3788,2.3793,2.3742,2.3736,2.3729,2.3718,2.3791,2.3791,2.3843,2.3843,2.3844]},{"header":{"parameterUnit":"m.s-1","parameterCategory":1,"la1":30.2991,"la2":30.254,"lo1":-89.0895,"lo2":-89.0444,"dy":0.0017,"dx":0.0017,"nx":28,"ny":28,"refTime":"2024-11-26T09:00:00:Z","depth":0,"parameterNumber":3,"parameterNumberName":"V-component_of_WINDS"},"data":[0,0,0,0,0,0,0,0,0,0,0,0,0,0,0,0,0,0,0,0,0,0,0,0,0,0,0,0,0,0,0,0,0,0,0,0,0,0,0,0,0,0,0,0,0,0,0,0,0,0,0,0,0,0,0,0,0,0,5.9423,5.9425,0,5.9543,5.9545,5.9546,5.9511,5.9509,5.9507,5.9504,5.9622,5.9627,5.9632,0,0,0,0,0,0,0,0,0,0,0,0,0,5.9159,5.9164,5.9423,5.9425,5.9426,5.9543,5.9545,5.9547,5.9512,5.9509,5.9506,5.9503,5.962,5.9626,5.9633,0,0,0,0,0,0,0,0,0,0,0,0,0,5.9276,5.9165,5.9423,5.9423,5.9424,5.9543,5.9545,5.9547,5.9513,5.9509,5.9505,5.9502,5.9618,5.9626,5.9634,5.9758,0,0,5.9659,5.9662,0,0,0,0,0,0,0,0,5.9269,5.9285,5.9422,5.9423,5.9425,5.9509,5.9495,5.9617,5.9513,5.9479,5.9504,5.95,5.9587,5.9597,5.9628,5.9763,5.9768,5.9659,5.9664,5.9668,5.967,0,0,0,0,0,0,0,5.9261,5.928,5.9471,5.9424,5.9426,5.9416,5.9428,5.9518,5.9552,5.9482,5.9479,5.9494,5.9587,5.962,5.963,5.977,5.9659,5.9666,5.9671,5.9674,6.0013,6.0017,0,0,0,0,0,0,5.9252,5.9273,5.9467,5.9474,5.9337,5.9423,5.9437,5.9486,5.9551,5.9557,5.9497,5.9492,5.9608,5.9621,5.9634,5.9784,5.9668,5.9675,5.968,6.0009,6.0014,6.0018,0,0,0,0,0,0,5.9247,5.927,5.9462,5.9373,5.9397,5.9432,5.9486,5.949,5.9523,5.9563,5.9568,5.9525,5.9605,5.9623,5.9728,5.9787,5.9679,5.9686,6.0004,6.001,6.0016,6.0084,0,0,0,0,0,0,5.9239,5.9268,5.9317,5.9375,5.9402,5.9555,5.949,5.9495,5.9538,5.9532,5.959,5.9596,5.9604,5.9716,5.9736,5.9797,5.9693,5.9998,6.0007,6.0014,6.0076,6.0092,6.0105,0,0,0,0,0,5.923,5.933,5.932,5.9343,5.9464,5.9559,5.9574,5.9582,5.9543,5.9591,5.9617,5.9595,5.9778,5.9727,5.9749,5.9813,5.9995,6.0004,6.0013,6.007,6.0089,6.0104,0,0,0,0,0,0,5.9276,5.9338,5.9327,5.9449,5.9499,5.9553,5.9614,5.9602,5.9663,5.9655,5.966,5.9674,5.9781,5.9807,5.975,5.9936,5.988,5.9894,5.9916,5.9934,5.9947,5.9939,5.9699,0,0,0,0,0,5.9301,5.9375,5.9423,5.9526,5.9552,5.9579,5.9621,5.9623,5.9674,5.9695,5.9728,5.9778,5.9846,5.9891,5.9956,6.008,6.0092,6.0135,6.0149,6.016,6.0172,6.0239,6.0259,6.0048,6.0048,6.0048,0,0,5.9352,5.9395,5.944,5.9537,5.9576,5.9651,5.9597,5.9678,5.9733,5.9706,5.9808,5.9835,5.989,6.0005,6.0057,6.003,6.0233,6.0172,6.0181,6.0187,6.0251,6.0271,6.0289,6.0055,6.0053,6.0052,0,0,5.9483,5.9523,5.9614,5.9655,5.9716,5.9733,5.9754,5.9811,5.9828,5.993,5.9912,5.9976,6.0094,6.0135,6.0171,6.0318,6.03,6.0339,6.0412,6.0478,6.0494,6.0509,6.0562,6.0581,6.0351,6.0351,6.0351,0,5.9539,5.9653,5.9661,5.9745,5.9787,5.9769,5.9859,5.9898,5.9976,6.0005,5.9974,6.0122,6.0158,6.0282,6.0318,6.0348,6.0372,6.0333,6.0492,6.0507,6.052,6.0571,6.059,6.0355,6.0355,6.0354,6.0354,0,5.9718,5.9797,5.9862,5.9941,5.9991,6.0077,6.0097,6.0146,6.0144,6.0164,6.0268,6.0311,6.0385,6.0414,6.0412,6.0538,6.0519,6.049,6.0434,6.0545,6.0592,6.0611,6.0362,6.036,6.0359,6.0358,0,0,5.9882,5.9965,5.9989,6.0024,6.009,6.0151,6.0236,6.031,6.0352,6.0406,6.0477,6.0578,6.0552,6.0592,6.0594,6.0652,6.0766,6.0615,6.0616,6.0642,6.0907,6.0929,6.0952,6.0754,6.0758,6.0761,6.0903,0,6.0019,6.0172,6.0182,6.0319,6.0392,6.0375,6.0449,6.0497,6.0518,6.0581,6.0603,6.0675,6.0634,6.0659,6.0715,6.074,6.0819,6.073,6.0819,6.0822,6.0806,6.0976,6.1,6.1132,6.0921,6.0924,6.0927,0,6.02,6.0263,6.0408,6.0464,6.0495,6.0562,6.0631,6.0692,6.0745,6.0756,6.0802,6.0796,6.0882,6.0823,6.094,6.088,6.0916,6.0934,6.0939,6.0948,6.0881,6.099,6.1174,6.1194,6.0956,6.0953,6.0951,0,6.0306,6.0426,6.0529,6.0559,6.0627,6.0675,6.0705,6.0754,6.0798,6.0858,6.0886,6.0954,6.0991,6.1043,6.1055,6.101,6.1172,6.1114,6.1183,6.1183,6.1218,6.1216,6.1412,6.1242,6.1241,6.1241,6.124,0,6.0459,6.0548,6.0577,6.064,6.074,6.075,6.0847,6.0874,6.0918,6.0985,6.0973,6.1036,6.1047,6.1112,6.1121,6.1217,6.1234,6.1244,6.1246,6.1246,6.1245,6.127,6.1261,6.1246,6.1245,6.1244,6.1243,0,6.0594,6.0617,6.0728,6.0783,6.0799,6.087,6.0917,6.0977,6.0996,6.1081,6.1101,6.1131,6.1207,6.1224,6.1313,6.1319,6.1433,6.1425,6.1416,6.1415,6.1484,6.1477,6.1703,6.1733,6.1543,6.1545,6.1546,0,6.069,6.0759,6.0823,6.0868,6.0901,6.0973,6.1019,6.103,6.1078,6.1144,6.1195,6.127,6.133,6.1451,6.148,6.1548,6.1541,6.1616,6.1551,6.1549,6.1543,6.1539,6.1546,6.1628,6.163,6.1632,6.1633,0,6.0859,6.0867,6.0934,6.1006,6.1061,6.1117,6.117,6.1207,6.1226,6.128,6.1358,6.1405,6.1497,6.157,6.1639,6.1667,6.1654,6.1653,6.1673,6.1674,6.1666,6.1671,6.145,6.1648,6.1647,6.1645,6.1645,6.1644,6.0978,6.1038,6.1093,6.1168,6.121,6.126,6.132,6.1348,6.1414,6.1491,6.1493,6.1578,6.1629,6.1719,6.1752,6.1818,6.1794,6.1823,6.183,6.1837,6.1843,6.1655,6.183,6.1829,6.1829,6.1829,6.1828,0,6.1146,6.1181,6.125,6.1326,6.1385,6.1369,6.1427,6.1477,6.1553,6.1602,6.1662,6.1752,6.1823,6.1858,6.1928,6.1974,6.1969,6.1992,6.1989,6.1996,6.186,6.1836,6.1995,6.1995,6.1994,6.1994,6.1994,6.1994,6.1241,6.1343,6.1357,6.1479,6.1513,6.1598,6.1633,6.1678,6.1718,6.182,6.188,6.1903,6.1946,6.2019,6.2084,6.2092,6.2118,6.2144,6.2149,6.2022,6.2005,6.1989,6.1967,6.215,6.215,6.2279,6.228,6.2281]}]]